sat.trackr.live / text

‹ back to catalog

STARLINK-1972

NORAD 47627 · 2021-012H

PAYLOAD ACTIVE UNKNOWN

§ Identity

Operator
Country
US
Launch date
2021-02-16
Launch site
AFETR
Launch vehicle
Mass (kg)
RCS (m²)

Purposes: comms

External: N2YO · Heavens-Above · Gunter

§ Orbital elements

Epoch: 2026-09-20T04:00:03.000096Z

Period
90.54 min
Inclination
53.0367°
Eccentricity
0.0002651
Mean motion
15.90500201 rev/d
Perigee alt
299.1 km
Apogee alt
302.7 km
Semi-major
6,679.0 km
B*
7.2610e-4
RAAN
88.5099°
Arg perigee
198.6071°
Mean anomaly
182.0400°
Rev number
604

§ Raw data

STARLINK-19721 47627U 21012H   26263.16670139  .00225163  29683-4  72610-3 0  99942 47627  53.0367  88.5099 0002651 198.6071 182.0400 15.90500201  6045

JSON: /api/v1/satellites/47627 · /tle

For live sub-satellite position, see the globe view (requires WebGL).

§ Visibility from observer

Set your observer location to see the next 7 days of passes ≥ 10°. The values pass through the URL so the page stays shareable.

No JS? Fill the form by hand. The geolocation button needs JavaScript.